[[{"header":{"parameterUnit":"m.s-1","parameterCategory":2,"la1":30.2991,"la2":30.254,"lo1":-89.0895,"lo2":-89.0444,"dy":0.0017,"dx":0.0017,"nx":28,"ny":28,"refTime":"2023-08-13T09:00:00:Z","depth":"0","parameterNumber":2,"parameterNumberName":"U-component_of_CURRENTS"},"data":[0,0,0,0,0,0,0,0,0,0,0,0,0,0,0,0,0,0,0,0,0,0,0,0,0,0,0,0,0,0,0,0,0,0,0,0,0,0,0,0,0,0,0,0,0,0,0,0,0,0,0,0,0,0,0,0,0,0,0.3898,0.3899,0,0.4031,0.4033,0.4034,0.399,0.3988,0.3985,0.3983,0.4016,0.4019,0.4022,0,0,0,0,0,0,0,0,0,0,0,0,0,0.3656,0.366,0.3897,0.39,0.3902,0.4031,0.4033,0.4034,0.3991,0.3988,0.3985,0.3982,0.4015,0.4019,0.4023,0,0,0,0,0,0,0,0,0,0,0,0,0,0.3767,0.3661,0.3897,0.39,0.3901,0.4031,0.4033,0.4034,0.3991,0.3988,0.3984,0.3981,0.4014,0.4019,0.4023,0.4124,0,0,0.4038,0.404,0,0,0,0,0,0,0,0,0.3761,0.3776,0.3897,0.39,0.3902,0.3995,0.396,0.4061,0.3992,0.3952,0.3983,0.3979,0.4006,0.4011,0.4038,0.4126,0.4127,0.4038,0.4041,0.4043,0.4044,0,0,0,0,0,0,0,0.3753,0.377,0.3945,0.39,0.3903,0.3912,0.3923,0.3979,0.3991,0.3955,0.3953,0.3978,0.4005,0.4034,0.4039,0.4128,0.4038,0.4042,0.4045,0.4047,0.4355,0.436,0,0,0,0,0,0,0.375,0.3763,0.3941,0.395,0.3827,0.392,0.3931,0.3964,0.3993,0.3996,0.3981,0.3975,0.4028,0.4033,0.4039,0.4172,0.4043,0.4047,0.405,0.4349,0.4356,0.4362,0,0,0,0,0,0,0.3744,0.3765,0.3936,0.3862,0.3885,0.3928,0.3965,0.3969,0.3999,0.4015,0.4014,0.4006,0.4025,0.4033,0.4097,0.4171,0.4049,0.4054,0.4343,0.4351,0.4359,0.4429,0,0,0,0,0,0,0.3737,0.3762,0.3788,0.3863,0.389,0.4011,0.397,0.3975,0.4022,0.4016,0.4038,0.4036,0.4023,0.409,0.4102,0.4176,0.4057,0.4336,0.4347,0.4356,0.442,0.4439,0.4454,0,0,0,0,0,0.3728,0.379,0.3789,0.381,0.3923,0.4013,0.4028,0.4041,0.4027,0.4052,0.4069,0.4036,0.4163,0.4098,0.411,0.4187,0.4331,0.4344,0.4355,0.4412,0.4435,0.4454,0,0,0,0,0,0,0.3717,0.3795,0.3793,0.3879,0.3935,0.4007,0.4049,0.4062,0.4102,0.4092,0.409,0.4093,0.4194,0.4195,0.4123,0.4316,0.4251,0.4266,0.429,0.4311,0.4328,0.4312,0.4061,0,0,0,0,0,0.3725,0.378,0.385,0.392,0.3949,0.4002,0.4043,0.4054,0.4103,0.4116,0.4131,0.4177,0.4263,0.428,0.4345,0.4433,0.4465,0.4503,0.452,0.4534,0.4537,0.4667,0.4695,0.4401,0.4401,0.4401,0,0,0.3745,0.3796,0.3828,0.392,0.3964,0.403,0.4016,0.4089,0.4142,0.4119,0.4189,0.4243,0.4309,0.4412,0.4457,0.4407,0.4641,0.4549,0.4559,0.4555,0.4683,0.4711,0.4735,0.4409,0.4408,0.4407,0,0,0.381,0.3852,0.3908,0.3958,0.4031,0.4068,0.4092,0.4163,0.4185,0.4275,0.4294,0.4384,0.4477,0.454,0.4589,0.4751,0.4744,0.4784,0.4831,0.4958,0.4982,0.5003,0.5087,0.5115,0.477,0.4771,0.4771,0,0.3827,0.39,0.3942,0.4007,0.4047,0.4087,0.4147,0.4208,0.4286,0.4319,0.4301,0.4503,0.455,0.4703,0.476,0.4788,0.4838,0.4731,0.4975,0.4997,0.5017,0.5098,0.5128,0.4775,0.4775,0.4774,0.4774,0,0.3922,0.3976,0.4022,0.41,0.4154,0.4219,0.4288,0.4343,0.4378,0.4427,0.457,0.4651,0.4755,0.4817,0.4836,0.5022,0.5005,0.4992,0.4902,0.505,0.5128,0.5157,0.4782,0.4781,0.4779,0.4778,0,0,0.3967,0.4062,0.4075,0.4091,0.4196,0.424,0.4349,0.4442,0.4494,0.4596,0.4681,0.4869,0.4892,0.4955,0.5007,0.5115,0.5316,0.5109,0.5113,0.5157,0.5576,0.5494,0.5518,0.5337,0.5343,0.5347,0.5572,0,0.4017,0.411,0.4159,0.4238,0.4278,0.4338,0.4417,0.4505,0.4584,0.4674,0.4801,0.4913,0.4953,0.5005,0.5135,0.528,0.5397,0.5254,0.5458,0.5464,0.5344,0.5552,0.5342,0.552,0.5601,0.5606,0.561,0,0.4075,0.4124,0.419,0.425,0.4273,0.4324,0.4418,0.4501,0.4652,0.4717,0.4859,0.494,0.5151,0.5141,0.5464,0.5368,0.5487,0.5582,0.5593,0.5506,0.5438,0.5392,0.557,0.5361,0.5655,0.5651,0.5648,0,0.4029,0.4136,0.4165,0.4194,0.4286,0.4316,0.4374,0.4502,0.456,0.4747,0.4805,0.5043,0.5154,0.5376,0.5588,0.5544,0.5907,0.5865,0.5903,0.5896,0.5753,0.5724,0.5719,0.6094,0.6093,0.6093,0.6092,0,0.4037,0.4059,0.4133,0.4146,0.4173,0.4259,0.4307,0.4408,0.454,0.4618,0.4809,0.492,0.5221,0.5441,0.563,0.5873,0.5958,0.596,0.5976,0.5773,0.5745,0.5579,0.5463,0.6101,0.6099,0.6097,0.6096,0,0.3959,0.4017,0.4044,0.4123,0.414,0.4155,0.4239,0.4284,0.4427,0.4543,0.4605,0.4873,0.5166,0.5439,0.5799,0.5903,0.5978,0.6198,0.5919,0.5898,0.569,0.5587,0.5488,0.5347,0.6285,0.6284,0.6284,0,0.3919,0.3927,0.3989,0.3995,0.4019,0.4055,0.4078,0.4214,0.4272,0.4511,0.4562,0.4854,0.5051,0.5532,0.5805,0.6129,0.5941,0.6073,0.596,0.5689,0.5589,0.5378,0.5251,0.5811,0.5807,0.5804,0.5801,0,0.3838,0.3854,0.3874,0.3888,0.3902,0.3921,0.3974,0.3997,0.417,0.4292,0.4478,0.4651,0.5077,0.5322,0.5715,0.5892,0.5731,0.601,0.5827,0.531,0.4988,0.4853,0.562,0.5771,0.5774,0.5776,0.5778,0.5779,0.3758,0.3749,0.3774,0.3778,0.3783,0.3778,0.377,0.3859,0.3944,0.4114,0.4325,0.4544,0.4852,0.5377,0.5533,0.5561,0.5542,0.5436,0.5368,0.5207,0.4947,0.5627,0.5722,0.5725,0.5727,0.5729,0.5731,0,0.367,0.3673,0.3668,0.3656,0.3611,0.3663,0.3687,0.3683,0.3754,0.3984,0.4153,0.4378,0.4609,0.487,0.5055,0.4944,0.4805,0.4791,0.4436,0.4376,0.5084,0.4934,0.4741,0.4742,0.4742,0.4742,0.4742,0.4742,0.3623,0.3592,0.3595,0.3496,0.3475,0.3414,0.3414,0.3449,0.3579,0.3703,0.3827,0.3969,0.42,0.4392,0.4369,0.4327,0.4005,0.3843,0.3835,0.4294,0.4346,0.4396,0.4228,0.3891,0.389,0.2981,0.2974,0.2968]},{"header":{"parameterUnit":"m.s-1","parameterCategory":2,"la1":30.2991,"la2":30.254,"lo1":-89.0895,"lo2":-89.0444,"dy":0.0017,"dx":0.0017,"nx":28,"ny":28,"refTime":"2023-08-13T09:00:00:Z","depth":"0","parameterNumber":3,"parameterNumberName":"V-component_of_CURRENTS"},"data":[0,0,0,0,0,0,0,0,0,0,0,0,0,0,0,0,0,0,0,0,0,0,0,0,0,0,0,0,0,0,0,0,0,0,0,0,0,0,0,0,0,0,0,0,0,0,0,0,0,0,0,0,0,0,0,0,0,0,0.0683,0.0683,0,0.0681,0.0681,0.0681,0.0608,0.0606,0.0604,0.0602,0.0445,0.0443,0.0441,0,0,0,0,0,0,0,0,0,0,0,0,0,0.0609,0.0611,0.0683,0.0683,0.0682,0.0681,0.0681,0.0681,0.0608,0.0606,0.0603,0.0601,0.0446,0.0443,0.044,0,0,0,0,0,0,0,0,0,0,0,0,0,0.0629,0.0612,0.0683,0.0645,0.0641,0.0681,0.0681,0.0681,0.0609,0.0606,0.0603,0.06,0.0447,0.0443,0.044,0.0481,0,0,0.043,0.0428,0,0,0,0,0,0,0,0,0.0628,0.0632,0.065,0.0647,0.0643,0.064,0.0597,0.0606,0.061,0.0623,0.0602,0.0598,0.0497,0.0489,0.0501,0.0474,0.0467,0.0429,0.0427,0.0426,0.0425,0,0,0,0,0,0,0,0.0627,0.0632,0.0684,0.065,0.0646,0.0623,0.0622,0.0599,0.0576,0.0622,0.0616,0.0614,0.0494,0.0504,0.0496,0.0464,0.0429,0.0426,0.0424,0.0423,0.049,0.0493,0,0,0,0,0,0,0.0629,0.0631,0.0684,0.0683,0.0626,0.0626,0.0626,0.0646,0.0579,0.0567,0.0616,0.061,0.0512,0.05,0.049,0.0559,0.0426,0.0423,0.0421,0.0486,0.049,0.0495,0,0,0,0,0,0,0.0628,0.0634,0.0684,0.0654,0.0658,0.0631,0.0653,0.0647,0.0658,0.0577,0.0561,0.0633,0.0509,0.0494,0.05,0.0551,0.0421,0.0418,0.0481,0.0487,0.0493,0.0681,0,0,0,0,0,0,0.0626,0.0635,0.0663,0.0655,0.066,0.0729,0.0656,0.0649,0.066,0.0653,0.0586,0.0568,0.0505,0.0507,0.0497,0.0544,0.0415,0.0477,0.0484,0.0491,0.067,0.0693,0.0712,0,0,0,0,0,0.0624,0.0683,0.0666,0.0672,0.0697,0.0731,0.0734,0.0702,0.0665,0.0696,0.0656,0.057,0.0544,0.0508,0.0496,0.0542,0.0473,0.0482,0.049,0.0661,0.0688,0.0712,0,0,0,0,0,0,0.0679,0.0681,0.0661,0.0721,0.073,0.0718,0.0749,0.0723,0.0722,0.0708,0.0621,0.0604,0.0628,0.0573,0.0534,0.0587,0.0494,0.0501,0.0628,0.0653,0.0674,0.0699,0.0413,0,0,0,0,0,0.0703,0.0741,0.0735,0.0786,0.0794,0.0775,0.0787,0.0768,0.0757,0.0753,0.0706,0.0667,0.0661,0.0645,0.0624,0.0655,0.0601,0.0679,0.07,0.0718,0.0735,0.072,0.0741,0.0523,0.0523,0.0522,0,0,0.074,0.0745,0.0767,0.0799,0.0801,0.0845,0.0776,0.0811,0.0847,0.0736,0.0776,0.0739,0.0688,0.0726,0.073,0.0679,0.0755,0.0729,0.0744,0.0751,0.0731,0.0752,0.077,0.0528,0.0527,0.0527,0,0,0.0825,0.0837,0.0888,0.0906,0.0919,0.0914,0.0929,0.0929,0.093,0.0969,0.0904,0.0914,0.0885,0.0874,0.0861,0.0991,0.087,0.0972,0.109,0.1077,0.1094,0.1108,0.1073,0.1083,0.0977,0.0978,0.0978,0,0.0867,0.0926,0.0913,0.0964,0.0991,0.0952,0.1015,0.103,0.1031,0.1049,0.1002,0.1011,0.0965,0.102,0.1067,0.1037,0.0993,0.0994,0.1102,0.1115,0.1127,0.1087,0.1095,0.0988,0.0987,0.0986,0.0985,0,0.0975,0.1027,0.1066,0.1112,0.1146,0.12,0.1205,0.124,0.1227,0.1226,0.1275,0.1235,0.1232,0.1231,0.1187,0.1258,0.119,0.1132,0.1034,0.116,0.111,0.1115,0.1002,0.0999,0.0996,0.0993,0,0,0.1054,0.1127,0.1139,0.1178,0.1226,0.1264,0.1345,0.1402,0.1452,0.1452,0.1517,0.1526,0.1485,0.1471,0.1417,0.1414,0.1464,0.1318,0.1312,0.1276,0.1416,0.1354,0.1351,0.1413,0.1415,0.1416,0.1349,0,0.1139,0.1248,0.1271,0.1385,0.144,0.1451,0.1529,0.1573,0.1595,0.1649,0.1626,0.1658,0.158,0.1582,0.1578,0.1498,0.1485,0.1486,0.1306,0.1301,0.1223,0.1359,0.1272,0.1205,0.1353,0.1354,0.1355,0,0.1228,0.1287,0.1403,0.1505,0.1533,0.1598,0.1701,0.1768,0.1832,0.1846,0.1874,0.1837,0.1864,0.1763,0.1696,0.1694,0.158,0.1502,0.1495,0.1375,0.1249,0.1103,0.1207,0.0883,0.1361,0.136,0.136,0,0.1256,0.1382,0.1472,0.1507,0.1615,0.1678,0.1742,0.1824,0.1889,0.1967,0.2009,0.2011,0.2012,0.1908,0.1753,0.1725,0.1645,0.1576,0.1409,0.1401,0.1263,0.124,0.1026,0.1518,0.1519,0.1519,0.1519,0,0.1326,0.1398,0.1489,0.1537,0.1657,0.172,0.1847,0.1911,0.2008,0.2104,0.21,0.2168,0.2047,0.1979,0.1817,0.1642,0.1688,0.1463,0.14,0.1328,0.1313,0.0968,0.0844,0.1516,0.1517,0.1517,0.1518,0,0.1332,0.1396,0.1497,0.1618,0.1667,0.1745,0.1898,0.1988,0.2074,0.2202,0.2232,0.2286,0.2235,0.207,0.1905,0.1724,0.1391,0.1459,0.1377,0.1308,0.0874,0.0766,0.058,0.048,0.1301,0.1299,0.1298,0,0.1342,0.1391,0.1528,0.1592,0.1649,0.1775,0.1871,0.1999,0.2104,0.2279,0.2349,0.2361,0.2406,0.2152,0.1834,0.155,0.1321,0.1251,0.1201,0.0868,0.0701,0.0648,0.0574,0.1084,0.1081,0.1078,0.1076,0,0.1347,0.1386,0.1463,0.1591,0.17,0.1839,0.199,0.2082,0.2251,0.2383,0.2557,0.2619,0.2407,0.2149,0.1746,0.1507,0.1043,0.1193,0.0868,0.0554,0.0464,0.0328,0.1087,0.1054,0.1057,0.1058,0.1059,0.106,0.1328,0.1375,0.1472,0.1595,0.1729,0.1897,0.2021,0.2196,0.2391,0.2642,0.2695,0.285,0.2393,0.1881,0.1526,0.0752,0.0877,0.0512,0.0422,0.0407,0.0283,0.0999,0.0883,0.0884,0.0885,0.0886,0.0887,0,0.1298,0.1369,0.1478,0.1641,0.1783,0.1867,0.2101,0.2254,0.2497,0.2761,0.2944,0.2761,0.2178,0.1568,0.056,0.0047,-0.0092,-0.0237,-0.0377,-0.0402,0.0217,0.0172,-0.0128,-0.0128,-0.0127,-0.0127,-0.0127,-0.0126,0.1284,0.1364,0.1434,0.1648,0.1777,0.1994,0.2134,0.2382,0.262,0.291,0.3011,0.3051,0.242,0.0698,-0.0516,-0.0761,-0.1057,-0.1107,-0.1208,-0.0887,-0.0826,-0.0769,-0.0846,-0.1355,-0.1356,-0.1814,-0.182,-0.1824]}],[{"header":{"parameterUnit":"m.s-1","parameterCategory":2,"la1":30.2991,"la2":30.254,"lo1":-89.0895,"lo2":-89.0444,"dy":0.0017,"dx":0.0017,"nx":28,"ny":28,"refTime":"2023-08-13T09:00:00:Z","depth":"2","parameterNumber":2,"parameterNumberName":"U-component_of_CURRENTS"},"data":[0,0,0,0,0,0,0,0,0,0,0,0,0,0,0,0,0,0,0,0,0,0,0,0,0,0,0,0,0,0,0,0,0,0,0,0,0,0,0,0,0,0,0,0,0,0,0,0,0,0,0,0,0,0,0,0,0,0,0.258,0.2582,0,0.2708,0.2709,0.271,0.2725,0.2724,0.2723,0.2722,0.2757,0.2759,0.2761,0,0,0,0,0,0,0,0,0,0,0,0,0,0.2363,0.2367,0.258,0.2582,0.2584,0.2708,0.2709,0.271,0.2725,0.2724,0.2723,0.2722,0.2756,0.2759,0.2761,0,0,0,0,0,0,0,0,0,0,0,0,0,0.2467,0.2368,0.258,0.2609,0.2613,0.2707,0.2709,0.2711,0.2725,0.2724,0.2722,0.2721,0.2756,0.2758,0.2761,0.2805,0,0,0.2769,0.277,0,0,0,0,0,0,0,0,0.2461,0.2475,0.2603,0.2607,0.2612,0.2702,0.2646,0.2739,0.2726,0.2679,0.2722,0.272,0.2734,0.2738,0.2761,0.2807,0.2808,0.2769,0.2771,0.2772,0.2773,0,0,0,0,0,0,0,0.2454,0.2469,0.2627,0.2605,0.2611,0.2621,0.2634,0.2664,0.2708,0.2683,0.2685,0.2706,0.2735,0.2759,0.2762,0.2809,0.2769,0.2772,0.2773,0.2774,0.2998,0.3002,0,0,0,0,0,0,0.2448,0.2463,0.2623,0.2631,0.2536,0.2626,0.264,0.2672,0.2709,0.2716,0.2707,0.2706,0.2755,0.2759,0.2763,0.2876,0.2772,0.2775,0.2776,0.2994,0.2999,0.3003,0,0,0,0,0,0,0.2443,0.2461,0.2618,0.2552,0.2573,0.2632,0.2667,0.2675,0.2707,0.273,0.2733,0.2731,0.2754,0.2759,0.2827,0.2875,0.2776,0.2778,0.2988,0.2995,0.3001,0.3065,0,0,0,0,0,0,0.2436,0.2459,0.2486,0.2552,0.2576,0.2687,0.2669,0.2678,0.2723,0.2723,0.2751,0.2753,0.2753,0.2824,0.283,0.2877,0.278,0.2983,0.2991,0.2999,0.3057,0.3073,0.3086,0,0,0,0,0,0.2428,0.2466,0.2487,0.2507,0.261,0.2689,0.2703,0.2736,0.2725,0.2755,0.2788,0.2752,0.288,0.2829,0.2836,0.2884,0.2979,0.2989,0.2998,0.3051,0.307,0.3085,0,0,0,0,0,0,0.2387,0.2474,0.2497,0.2561,0.2628,0.2693,0.273,0.2747,0.2797,0.2799,0.2801,0.2807,0.2889,0.2892,0.2836,0.2982,0.2927,0.2938,0.2965,0.2982,0.2996,0.2989,0.2783,0,0,0,0,0,0.2394,0.2445,0.2527,0.258,0.2618,0.2676,0.2713,0.2741,0.2792,0.2812,0.2837,0.288,0.2937,0.296,0.3007,0.3078,0.3085,0.3121,0.3136,0.3147,0.3152,0.3227,0.3247,0.3035,0.3035,0.3035,0,0,0.2393,0.2449,0.2478,0.2575,0.2629,0.2696,0.2694,0.2764,0.2816,0.2809,0.2887,0.2928,0.2971,0.3059,0.3095,0.3062,0.3215,0.316,0.3168,0.3167,0.3239,0.3259,0.3277,0.3042,0.3041,0.304,0,0,0.2411,0.2471,0.2518,0.258,0.2673,0.272,0.2742,0.2825,0.286,0.2946,0.2966,0.3038,0.3112,0.3161,0.3191,0.3316,0.3291,0.3341,0.3396,0.347,0.3486,0.3501,0.3533,0.355,0.3343,0.3343,0.3343,0,0.2403,0.2478,0.2544,0.2609,0.2662,0.273,0.2791,0.2852,0.2944,0.2988,0.2979,0.3135,0.316,0.3275,0.3328,0.3342,0.3372,0.3314,0.3483,0.3498,0.3512,0.3541,0.3559,0.3347,0.3347,0.3346,0.3346,0,0.2457,0.2522,0.2559,0.2663,0.2732,0.2799,0.2893,0.2964,0.3011,0.3067,0.319,0.3251,0.3337,0.3372,0.3386,0.3516,0.3501,0.3489,0.3423,0.3536,0.3561,0.3578,0.3353,0.3352,0.335,0.3349,0,0,0.2414,0.2564,0.2575,0.2625,0.2764,0.2817,0.2932,0.3047,0.3109,0.3211,0.3298,0.3421,0.3454,0.3495,0.3532,0.3601,0.3721,0.3596,0.3598,0.3597,0.387,0.3624,0.3618,0.3744,0.3747,0.375,0.3844,0,0.2431,0.2539,0.2617,0.2718,0.2784,0.2889,0.2978,0.3092,0.3187,0.3293,0.3388,0.3488,0.3501,0.3553,0.3632,0.3716,0.3772,0.3695,0.3787,0.3789,0.3531,0.3632,0.3424,0.3469,0.386,0.3863,0.3865,0,0.2452,0.2524,0.2621,0.2744,0.278,0.2847,0.3,0.3092,0.3265,0.3334,0.3466,0.3548,0.3702,0.3673,0.3859,0.3817,0.3851,0.389,0.3894,0.365,0.3574,0.3426,0.3485,0.3894,0.3891,0.3889,0.3887,0,0.2383,0.2518,0.2587,0.2635,0.2792,0.2848,0.2934,0.3103,0.3191,0.3376,0.3464,0.3635,0.3741,0.384,0.3944,0.3923,0.4109,0.4079,0.3881,0.3863,0.3691,0.3649,0.4179,0.4179,0.4179,0.4179,0.4178,0,0.2369,0.2415,0.2554,0.2593,0.2659,0.2796,0.2894,0.3002,0.3182,0.3284,0.3476,0.3581,0.3797,0.3933,0.3984,0.3984,0.4144,0.3899,0.3878,0.3705,0.3665,0.4035,0.4017,0.4182,0.4181,0.4181,0.418,0,0.2275,0.2379,0.2441,0.2585,0.263,0.2672,0.2847,0.2921,0.311,0.326,0.3332,0.3595,0.3752,0.3914,0.408,0.4009,0.4043,0.399,0.3744,0.3686,0.3735,0.372,0.3776,0.3768,0.3762,0.3756,0.3751,0,0.2233,0.2267,0.2391,0.2423,0.2481,0.258,0.265,0.2848,0.2945,0.3236,0.3293,0.353,0.3649,0.3793,0.3747,0.3765,0.3911,0.3519,0.3403,0.3724,0.3699,0.3694,0.3689,0.3233,0.3225,0.3218,0.3212,0,0.2129,0.2172,0.2217,0.2293,0.2355,0.2436,0.2561,0.263,0.287,0.3019,0.3212,0.3343,0.3468,0.3395,0.3382,0.3353,0.3494,0.3362,0.3844,0.3312,0.3204,0.3181,0.3196,0.315,0.3157,0.3161,0.3164,0.3167,0.2013,0.2011,0.2084,0.2141,0.2205,0.2277,0.2311,0.2472,0.2605,0.2779,0.2959,0.3059,0.31,0.2942,0.2875,0.2836,0.3019,0.2938,0.2965,0.2999,0.2863,0.2743,0.2579,0.2582,0.2584,0.2586,0.2588,0,0.1874,0.191,0.1943,0.2,0.2007,0.212,0.2234,0.2255,0.2356,0.2522,0.2636,0.2429,0.2409,0.2514,0.2335,0.2257,0.231,0.221,0.2314,0.2375,0.243,0.2271,0.1828,0.1825,0.1823,0.182,0,0,0.1802,0.1791,0.1826,0.1801,0.1846,0.1851,0.1895,0.1954,0.2059,0.2054,0.2101,0.2235,0.2408,0.2045,0.1999,0.1919,0.214,0.1855,0.2473,0.266,0.2711,0.2859,0.2681,0,0,0,0,0]},{"header":{"parameterUnit":"m.s-1","parameterCategory":2,"la1":30.2991,"la2":30.254,"lo1":-89.0895,"lo2":-89.0444,"dy":0.0017,"dx":0.0017,"nx":28,"ny":28,"refTime":"2023-08-13T09:00:00:Z","depth":"2","parameterNumber":3,"parameterNumberName":"V-component_of_CURRENTS"},"data":[0,0,0,0,0,0,0,0,0,0,0,0,0,0,0,0,0,0,0,0,0,0,0,0,0,0,0,0,0,0,0,0,0,0,0,0,0,0,0,0,0,0,0,0,0,0,0,0,0,0,0,0,0,0,0,0,0,0,-0.0662,-0.0663,0,-0.0692,-0.0692,-0.0692,-0.073,-0.0731,-0.0731,-0.0732,-0.0842,-0.0844,-0.0847,0,0,0,0,0,0,0,0,0,0,0,0,0,-0.068,-0.068,-0.0662,-0.0663,-0.0663,-0.0692,-0.0692,-0.0693,-0.073,-0.0731,-0.0731,-0.0732,-0.0841,-0.0844,-0.0847,0,0,0,0,0,0,0,0,0,0,0,0,0,-0.0688,-0.0679,-0.0662,-0.0685,-0.0687,-0.0691,-0.0692,-0.0693,-0.073,-0.0731,-0.0732,-0.0732,-0.084,-0.0844,-0.0847,-0.0853,0,0,-0.0858,-0.086,0,0,0,0,0,0,0,0,-0.0687,-0.0687,-0.0681,-0.0683,-0.0686,-0.0708,-0.0739,-0.075,-0.073,-0.0714,-0.0732,-0.0733,-0.0803,-0.081,-0.0814,-0.0858,-0.0863,-0.0859,-0.0861,-0.0862,-0.0863,0,0,0,0,0,0,0,-0.0687,-0.0686,-0.0675,-0.0681,-0.0684,-0.0707,-0.0709,-0.0741,-0.0756,-0.0716,-0.0718,-0.072,-0.0805,-0.081,-0.0817,-0.0865,-0.0859,-0.0862,-0.0864,-0.0865,-0.0907,-0.0906,0,0,0,0,0,0,-0.0678,-0.0685,-0.0674,-0.0675,-0.0688,-0.0706,-0.0708,-0.07,-0.0754,-0.0762,-0.072,-0.0722,-0.0803,-0.0812,-0.0821,-0.0805,-0.0862,-0.0866,-0.0868,-0.0908,-0.0906,-0.0905,0,0,0,0,0,0,-0.0679,-0.0677,-0.0673,-0.0682,-0.0683,-0.0705,-0.0696,-0.07,-0.07,-0.0756,-0.0766,-0.0713,-0.0804,-0.0816,-0.0835,-0.0811,-0.0867,-0.0871,-0.0909,-0.0907,-0.0906,-0.079,0,0,0,0,0,0,-0.0679,-0.0676,-0.0665,-0.068,-0.0682,-0.0662,-0.0695,-0.07,-0.07,-0.0703,-0.0754,-0.0765,-0.0806,-0.0829,-0.0838,-0.0817,-0.0874,-0.091,-0.0908,-0.0906,-0.0795,-0.0784,-0.0775,0,0,0,0,0,-0.0679,-0.0651,-0.0664,-0.0663,-0.0666,-0.0661,-0.0663,-0.0684,-0.0698,-0.0688,-0.0721,-0.0763,-0.0823,-0.083,-0.0842,-0.0821,-0.0911,-0.0909,-0.0907,-0.0799,-0.0786,-0.0776,0,0,0,0,0,0,-0.0645,-0.0653,-0.0668,-0.0642,-0.0649,-0.0667,-0.0656,-0.0673,-0.0689,-0.0692,-0.075,-0.0762,-0.0769,-0.0811,-0.0818,-0.0827,-0.0874,-0.0874,-0.0789,-0.0777,-0.0768,-0.0732,-0.0877,0,0,0,0,0,-0.0634,-0.0618,-0.0634,-0.0612,-0.0613,-0.0634,-0.0634,-0.0645,-0.0663,-0.0671,-0.0704,-0.0741,-0.0768,-0.0785,-0.0814,-0.082,-0.0857,-0.0815,-0.0805,-0.0796,-0.0775,-0.0822,-0.0814,-0.0897,-0.0897,-0.0897,0,0,-0.0612,-0.0616,-0.0606,-0.0604,-0.0611,-0.0592,-0.0635,-0.0623,-0.0604,-0.0681,-0.0665,-0.0707,-0.0761,-0.0763,-0.077,-0.0795,-0.0788,-0.0793,-0.0785,-0.0769,-0.0819,-0.0811,-0.0804,-0.0896,-0.0896,-0.0896,0,0,-0.0556,-0.0565,-0.0535,-0.0536,-0.0539,-0.0552,-0.0545,-0.0556,-0.0559,-0.0553,-0.0602,-0.0627,-0.0664,-0.0696,-0.0719,-0.0676,-0.0733,-0.0685,-0.0608,-0.0654,-0.0647,-0.0642,-0.0661,-0.0658,-0.0682,-0.0681,-0.0681,0,-0.0529,-0.0492,-0.0524,-0.0496,-0.0476,-0.0528,-0.0481,-0.0496,-0.051,-0.0498,-0.0533,-0.0572,-0.0631,-0.063,-0.0617,-0.0653,-0.0676,-0.0647,-0.064,-0.0636,-0.0632,-0.0653,-0.0652,-0.0676,-0.0676,-0.0677,-0.0677,0,-0.0454,-0.0424,-0.0402,-0.0384,-0.0373,-0.0339,-0.0361,-0.0352,-0.0368,-0.0382,-0.0379,-0.0454,-0.0472,-0.0503,-0.0548,-0.0543,-0.0565,-0.062,-0.0666,-0.0617,-0.0642,-0.0643,-0.0667,-0.0669,-0.0671,-0.0673,0,0,-0.0378,-0.0352,-0.0341,-0.03,-0.0302,-0.0272,-0.025,-0.0226,-0.0183,-0.0235,-0.0183,-0.0263,-0.03,-0.0329,-0.0396,-0.0446,-0.0453,-0.0509,-0.0514,-0.0519,-0.0524,-0.058,-0.0586,-0.0505,-0.0505,-0.0505,-0.0545,0,-0.03,-0.0214,-0.0225,-0.013,-0.0081,-0.0108,-0.0067,-0.0061,-0.0069,-0.0041,-0.0133,-0.0121,-0.0236,-0.0231,-0.03,-0.04,-0.0451,-0.0435,-0.0578,-0.0582,-0.0632,-0.0588,-0.0537,-0.0573,-0.0546,-0.0546,-0.0547,0,-0.021,-0.0162,-0.0054,0.0025,0.0048,0.0093,0.0171,0.0203,0.0197,0.0193,0.0162,0.0091,0.003,-0.0085,-0.0241,-0.0219,-0.0354,-0.0458,-0.0463,-0.0554,-0.0639,-0.0623,-0.0576,-0.0548,-0.0548,-0.0548,-0.0548,0,-0.0112,-0.0031,0.007,0.0095,0.016,0.022,0.026,0.0284,0.0346,0.035,0.0393,0.0283,0.027,0.0077,-0.0155,-0.0183,-0.0338,-0.0411,-0.0591,-0.0595,-0.06,-0.0606,-0.0534,-0.0534,-0.0534,-0.0534,-0.0534,0,-0.0009,0.0079,0.013,0.0191,0.0331,0.0339,0.0484,0.0503,0.0557,0.0644,0.0532,0.0568,0.0309,0.0174,-0.0072,-0.0317,-0.0279,-0.0555,-0.0609,-0.0557,-0.0559,-0.0585,-0.059,-0.0535,-0.0535,-0.0535,-0.0535,0,0.0098,0.0126,0.025,0.034,0.0386,0.0492,0.063,0.0721,0.0763,0.0874,0.0886,0.0811,0.0627,0.0335,0.0042,-0.0176,-0.0437,-0.0548,-0.0458,-0.0502,-0.0678,-0.0677,-0.0719,-0.0721,-0.0723,-0.0725,-0.0726,0,0.0166,0.0237,0.0366,0.0445,0.0499,0.0645,0.0747,0.0822,0.0919,0.1012,0.1072,0.0955,0.0853,0.0427,0.0008,-0.0407,-0.0472,-0.06,-0.0673,-0.0649,-0.0696,-0.0692,-0.0688,-0.0619,-0.062,-0.062,-0.062,0,0.0291,0.033,0.0421,0.0575,0.0699,0.0855,0.1001,0.1107,0.1197,0.1283,0.1369,0.1299,0.0892,0.0489,-0.0072,-0.0346,-0.0533,-0.0622,-0.0604,-0.0595,-0.0563,-0.0608,-0.0606,-0.0623,-0.0623,-0.0622,-0.0622,-0.0622,0.0378,0.0458,0.0563,0.0718,0.0862,0.1047,0.1195,0.1335,0.1506,0.1584,0.1499,0.138,0.0938,0.0191,-0.0195,-0.0562,-0.0606,-0.0736,-0.0731,-0.0727,-0.0723,-0.0698,-0.078,-0.078,-0.0781,-0.0781,-0.0782,0,0.0467,0.0557,0.0698,0.0885,0.1055,0.1117,0.1354,0.1497,0.1706,0.1653,0.1634,0.1147,0.0701,0.0259,-0.0295,-0.0663,-0.0657,-0.074,-0.0653,-0.0651,-0.0649,-0.0637,-0.0673,-0.0673,-0.0673,-0.0673,0,0,0.0519,0.0654,0.0724,0.1016,0.1159,0.1413,0.1559,0.1763,0.1822,0.1722,0.1572,0.1249,0.0767,0.0362,-0.0111,-0.0354,-0.0402,-0.0398,-0.0459,-0.0298,-0.029,-0.0636,-0.0615,0,0,0,0,0]}],[{"header":{"parameterUnit":"m.s-1","parameterCategory":2,"la1":30.2991,"la2":30.254,"lo1":-89.0895,"lo2":-89.0444,"dy":0.0017,"dx":0.0017,"nx":28,"ny":28,"refTime":"2023-08-13T09:00:00:Z","depth":"4","parameterNumber":2,"parameterNumberName":"U-component_of_CURRENTS"},"data":[0,0,0,0,0,0,0,0,0,0,0,0,0,0,0,0,0,0,0,0,0,0,0,0,0,0,0,0,0,0,0,0,0,0,0,0,0,0,0,0,0,0,0,0,0,0,0,0,0,0,0,0,0,0,0,0,0,0,0.0962,0.0963,0,0.1009,0.1009,0.1009,0.1062,0.1064,0.1065,0.1066,0.1168,0.117,0.1172,0,0,0,0,0,0,0,0,0,0,0,0,0,0.088,0.0882,0.0962,0.0963,0.0964,0.1009,0.1009,0.1009,0.1062,0.1064,0.1065,0.1066,0.1168,0.117,0.1172,0,0,0,0,0,0,0,0,0,0,0,0,0,0.0917,0.0882,0.0962,0.0998,0.1002,0.1008,0.1009,0.1009,0.1062,0.1064,0.1065,0.1067,0.1167,0.117,0.1172,0.1154,0,0,0.118,0.1181,0,0,0,0,0,0,0,0,0.0915,0.092,0.0992,0.0996,0.1,0.1034,0.1018,0.1062,0.1062,0.1036,0.1066,0.1068,0.113,0.1135,0.1135,0.1159,0.1164,0.118,0.1182,0.1183,0.1183,0,0,0,0,0,0,0,0.0912,0.0918,0.0977,0.0993,0.0998,0.0999,0.1006,0.1026,0.1071,0.1038,0.1043,0.1053,0.1132,0.1132,0.1138,0.1165,0.118,0.1182,0.1184,0.1185,0.1226,0.1225,0,0,0,0,0,0,0.0914,0.0915,0.0976,0.0979,0.0965,0.1,0.1007,0.1019,0.107,0.108,0.1051,0.1055,0.1127,0.1135,0.1142,0.123,0.1183,0.1185,0.1187,0.1226,0.1226,0.1225,0,0,0,0,0,0,0.0912,0.0919,0.0974,0.0951,0.0958,0.1,0.1012,0.1019,0.1049,0.108,0.1091,0.1079,0.1129,0.1138,0.1199,0.123,0.1186,0.1189,0.1227,0.1226,0.1225,0.1338,0,0,0,0,0,0,0.0909,0.0918,0.0939,0.0951,0.096,0.0996,0.1011,0.1019,0.1053,0.1059,0.1106,0.1116,0.1131,0.1196,0.1202,0.1233,0.1191,0.1227,0.1226,0.1226,0.1335,0.1341,0.1347,0,0,0,0,0,0.0906,0.092,0.094,0.0948,0.0984,0.0997,0.1001,0.1033,0.1053,0.1066,0.1113,0.1116,0.1193,0.1199,0.1206,0.1239,0.1228,0.1227,0.1226,0.1332,0.134,0.1347,0,0,0,0,0,0,0.0887,0.0927,0.0949,0.0974,0.0996,0.1008,0.1029,0.1044,0.1087,0.111,0.1134,0.1147,0.1195,0.1192,0.1197,0.1237,0.12,0.1201,0.1278,0.1286,0.1291,0.1286,0.1193,0,0,0,0,0,0.0894,0.0925,0.0951,0.0974,0.099,0.1013,0.1029,0.1051,0.1083,0.1104,0.1141,0.1168,0.1187,0.1223,0.1227,0.1275,0.1264,0.1286,0.1292,0.1298,0.1292,0.1313,0.1322,0.1222,0.1222,0.1222,0,0,0.0895,0.092,0.094,0.0974,0.0997,0.102,0.1027,0.106,0.1086,0.1109,0.1172,0.1191,0.1196,0.1244,0.1264,0.1261,0.132,0.1296,0.1302,0.1293,0.1313,0.1324,0.1333,0.1221,0.1221,0.1222,0,0,0.0896,0.0934,0.0959,0.0983,0.1027,0.1041,0.1056,0.1091,0.112,0.1171,0.1188,0.1232,0.1269,0.129,0.1299,0.1333,0.1336,0.1331,0.1392,0.1414,0.1424,0.1432,0.1445,0.1454,0.1356,0.1356,0.1356,0,0.0894,0.0933,0.0965,0.0992,0.102,0.1054,0.1081,0.1105,0.1159,0.1192,0.1202,0.1262,0.1279,0.1333,0.1356,0.135,0.1367,0.1381,0.1428,0.1435,0.1442,0.1453,0.1461,0.1361,0.1361,0.136,0.136,0,0.091,0.0952,0.0967,0.1021,0.105,0.108,0.112,0.1168,0.1208,0.1232,0.1295,0.1322,0.1368,0.1372,0.139,0.1447,0.1444,0.1425,0.1425,0.146,0.1468,0.1475,0.1369,0.1367,0.1365,0.1364,0,0,0.087,0.0962,0.097,0.101,0.1074,0.1095,0.1157,0.1214,0.1268,0.1311,0.1371,0.141,0.1443,0.1452,0.1477,0.1507,0.1582,0.1512,0.1511,0.1551,0.1648,0.1575,0.1574,0.16,0.1601,0.1602,0.1642,0,0.0875,0.0932,0.098,0.1042,0.1077,0.1144,0.1195,0.1257,0.1314,0.1382,0.1411,0.1467,0.1467,0.1521,0.1552,0.1566,0.1602,0.1573,0.1582,0.1581,0.1535,0.1579,0.1607,0.1646,0.1648,0.1649,0.1649,0,0.087,0.0916,0.0976,0.1074,0.1097,0.1145,0.1257,0.1308,0.1403,0.1454,0.1525,0.1551,0.1617,0.1599,0.1652,0.1648,0.1663,0.1658,0.166,0.1552,0.152,0.1594,0.166,0.166,0.1659,0.1658,0.1657,0,0.0822,0.0912,0.0965,0.0995,0.1103,0.1166,0.1235,0.134,0.1399,0.1518,0.1574,0.1637,0.1689,0.1704,0.1725,0.1711,0.1761,0.1729,0.1666,0.1661,0.1668,0.1658,0.1758,0.1758,0.1758,0.1758,0.1758,0,0.0798,0.0843,0.0958,0.0988,0.1067,0.1157,0.1258,0.1344,0.1461,0.1529,0.1619,0.1673,0.1726,0.1764,0.1756,0.1738,0.1792,0.1677,0.1669,0.1713,0.1707,0.1674,0.1664,0.1759,0.1759,0.1759,0.1758,0,0.0732,0.0807,0.0872,0.1,0.1048,0.1109,0.1269,0.1333,0.1466,0.1562,0.1607,0.1724,0.1777,0.1805,0.1834,0.1778,0.1759,0.1742,0.1802,0.1795,0.1633,0.1628,0.1656,0.1654,0.1652,0.1651,0.1649,0,0.0707,0.0733,0.086,0.0907,0.0975,0.1088,0.1161,0.1318,0.1387,0.1571,0.1596,0.1715,0.1774,0.1751,0.1787,0.177,0.1749,0.1732,0.166,0.1635,0.1625,0.1622,0.1619,0.1646,0.1646,0.1645,0.1645,0,0.0648,0.0696,0.0746,0.0839,0.0927,0.1012,0.1138,0.1185,0.1358,0.1481,0.157,0.1618,0.168,0.1697,0.1721,0.1696,0.173,0.1711,0.1714,0.1646,0.1624,0.1614,0.1614,0.1639,0.1639,0.164,0.164,0,0.0599,0.0615,0.0685,0.0762,0.0852,0.0918,0.1003,0.1108,0.1202,0.1413,0.1435,0.1558,0.1669,0.166,0.1666,0.1657,0.1614,0.1546,0.1556,0.1563,0.1514,0.147,0.1436,0,0,0,0,0,0.0547,0.0562,0.0613,0.0694,0.0772,0.0834,0.097,0.1057,0.1226,0.1257,0.1355,0.1413,0.147,0.1524,0.1491,0.1593,0.1598,0.1547,0.1518,0.1603,0.161,0.156,0,0,0,0,0,0,0.0516,0.0551,0.0577,0.0613,0.0656,0.0743,0.0826,0.0944,0.0981,0.1154,0.1187,0.1321,0.1381,0.1467,0.1458,0.1474,0.1427,0.1626,0.1623,0.1599,0.1605,0.1611,0.1562,0,0,0,0,0]},{"header":{"parameterUnit":"m.s-1","parameterCategory":2,"la1":30.2991,"la2":30.254,"lo1":-89.0895,"lo2":-89.0444,"dy":0.0017,"dx":0.0017,"nx":28,"ny":28,"refTime":"2023-08-13T09:00:00:Z","depth":"4","parameterNumber":3,"parameterNumberName":"V-component_of_CURRENTS"},"data":[0,0,0,0,0,0,0,0,0,0,0,0,0,0,0,0,0,0,0,0,0,0,0,0,0,0,0,0,0,0,0,0,0,0,0,0,0,0,0,0,0,0,0,0,0,0,0,0,0,0,0,0,0,0,0,0,0,0,-0.0203,-0.0203,0,-0.0265,-0.0266,-0.0267,-0.0284,-0.0284,-0.0283,-0.0283,-0.0405,-0.0408,-0.0411,0,0,0,0,0,0,0,0,0,0,0,0,0,-0.0126,-0.0127,-0.0202,-0.0203,-0.0204,-0.0265,-0.0266,-0.0267,-0.0284,-0.0284,-0.0283,-0.0283,-0.0403,-0.0408,-0.0412,0,0,0,0,0,0,0,0,0,0,0,0,0,-0.0171,-0.0127,-0.0202,-0.022,-0.0223,-0.0265,-0.0266,-0.0267,-0.0284,-0.0284,-0.0283,-0.0283,-0.0402,-0.0407,-0.0412,-0.0455,0,0,-0.0429,-0.0431,0,0,0,0,0,0,0,0,-0.0168,-0.0173,-0.0217,-0.0219,-0.0222,-0.0267,-0.0284,-0.0333,-0.0284,-0.026,-0.0283,-0.0282,-0.0364,-0.0373,-0.0384,-0.0461,-0.0466,-0.0429,-0.0432,-0.0435,-0.0436,0,0,0,0,0,0,0,-0.0165,-0.0171,-0.0227,-0.0218,-0.0221,-0.0235,-0.024,-0.0293,-0.0315,-0.0262,-0.0264,-0.0272,-0.0366,-0.0379,-0.0388,-0.0468,-0.0429,-0.0434,-0.0437,-0.0439,-0.0581,-0.0582,0,0,0,0,0,0,-0.0157,-0.0168,-0.0225,-0.0229,-0.0193,-0.0237,-0.0243,-0.0252,-0.0314,-0.0322,-0.0272,-0.0272,-0.037,-0.0381,-0.0392,-0.0445,-0.0435,-0.044,-0.0443,-0.0581,-0.0582,-0.0582,0,0,0,0,0,0,-0.0155,-0.0162,-0.0222,-0.02,-0.0209,-0.0238,-0.0249,-0.0254,-0.0272,-0.032,-0.0329,-0.0285,-0.037,-0.0385,-0.0454,-0.0449,-0.0442,-0.0447,-0.058,-0.0581,-0.0582,-0.0551,0,0,0,0,0,0,-0.0153,-0.0161,-0.0172,-0.0199,-0.021,-0.024,-0.025,-0.0256,-0.0277,-0.0278,-0.0335,-0.0345,-0.0371,-0.0446,-0.0459,-0.0457,-0.0451,-0.0579,-0.0581,-0.0582,-0.0551,-0.0551,-0.055,0,0,0,0,0,-0.015,-0.0157,-0.0172,-0.0179,-0.0221,-0.024,-0.0246,-0.0265,-0.0278,-0.0281,-0.0336,-0.0343,-0.0461,-0.0452,-0.0467,-0.0466,-0.0579,-0.058,-0.0582,-0.0552,-0.0551,-0.055,0,0,0,0,0,0,-0.0133,-0.0161,-0.0177,-0.0195,-0.0214,-0.0242,-0.0252,-0.027,-0.0315,-0.0325,-0.037,-0.0385,-0.0436,-0.0465,-0.0453,-0.0509,-0.0514,-0.0518,-0.0486,-0.0486,-0.0485,-0.0453,-0.0455,0,0,0,0,0,-0.0135,-0.0147,-0.0175,-0.0191,-0.02,-0.023,-0.0245,-0.0259,-0.0298,-0.0316,-0.0358,-0.0407,-0.0453,-0.0481,-0.0523,-0.0571,-0.0592,-0.0574,-0.0574,-0.0573,-0.0557,-0.0602,-0.0604,-0.0587,-0.0587,-0.0587,0,0,-0.0135,-0.0152,-0.016,-0.0188,-0.0207,-0.0211,-0.0237,-0.0256,-0.0261,-0.0326,-0.0359,-0.0413,-0.0467,-0.0511,-0.0534,-0.0535,-0.0591,-0.0575,-0.0574,-0.0558,-0.0604,-0.0605,-0.0606,-0.0588,-0.0587,-0.0587,0,0,-0.0123,-0.0153,-0.0151,-0.0163,-0.0189,-0.0207,-0.0212,-0.0246,-0.0261,-0.0307,-0.0352,-0.0407,-0.0475,-0.051,-0.0537,-0.0564,-0.0587,-0.0575,-0.0549,-0.0593,-0.0594,-0.0596,-0.0627,-0.0632,-0.0574,-0.0574,-0.0574,0,-0.0116,-0.0124,-0.0154,-0.015,-0.0157,-0.0201,-0.0195,-0.0218,-0.0271,-0.0293,-0.0308,-0.0417,-0.0465,-0.052,-0.0525,-0.0559,-0.0588,-0.0546,-0.0591,-0.0592,-0.0594,-0.0627,-0.0632,-0.0573,-0.0573,-0.0573,-0.0573,0,-0.0096,-0.0104,-0.0103,-0.0112,-0.0125,-0.013,-0.016,-0.0184,-0.0217,-0.0246,-0.0308,-0.0381,-0.0442,-0.0466,-0.0506,-0.0546,-0.0564,-0.0585,-0.0587,-0.0594,-0.0628,-0.0634,-0.0571,-0.0571,-0.0572,-0.0572,0,0,-0.007,-0.0083,-0.0083,-0.0079,-0.0105,-0.011,-0.0127,-0.0155,-0.0172,-0.0226,-0.0254,-0.0336,-0.0383,-0.0418,-0.0479,-0.0516,-0.0563,-0.0554,-0.0557,-0.0575,-0.0658,-0.0617,-0.062,-0.0598,-0.0599,-0.06,-0.0677,0,-0.0042,-0.0023,-0.0041,-0.0028,-0.0022,-0.0062,-0.007,-0.0106,-0.0149,-0.019,-0.0264,-0.0315,-0.0362,-0.0402,-0.0449,-0.0539,-0.0577,-0.0539,-0.0656,-0.0659,-0.0614,-0.0624,-0.0602,-0.0682,-0.0683,-0.0684,-0.0685,0,-0.0015,-0.0006,0.0017,0.0013,0.0012,0.0012,-0.0019,-0.0032,-0.0099,-0.0134,-0.02,-0.0266,-0.0343,-0.0377,-0.0509,-0.0487,-0.0563,-0.0623,-0.0628,-0.0598,-0.0629,-0.0675,-0.0696,-0.0695,-0.0694,-0.0694,-0.0693,0,0.0018,0.0032,0.0052,0.0053,0.0044,0.0041,0.0031,-0.002,-0.0028,-0.0103,-0.0125,-0.0231,-0.0283,-0.0389,-0.0516,-0.0522,-0.0651,-0.0678,-0.0707,-0.0705,-0.0732,-0.073,-0.0756,-0.0756,-0.0756,-0.0755,-0.0755,0,0.005,0.0064,0.0071,0.0082,0.0105,0.0081,0.0087,0.0056,0.0018,0.0012,-0.0093,-0.0125,-0.0289,-0.0388,-0.0503,-0.0615,-0.0644,-0.0693,-0.072,-0.0719,-0.0715,-0.0737,-0.0734,-0.0758,-0.0758,-0.0757,-0.0757,0,0.0071,0.0077,0.0104,0.0113,0.0122,0.0135,0.0142,0.0143,0.01,0.0089,0.007,-0.0052,-0.0181,-0.0336,-0.0513,-0.0584,-0.0705,-0.0739,-0.0714,-0.0741,-0.0735,-0.073,-0.0777,-0.0776,-0.0775,-0.0775,-0.0774,0,0.0081,0.01,0.0135,0.0161,0.0167,0.0189,0.0207,0.0186,0.0193,0.0139,0.014,0.0012,-0.0082,-0.0291,-0.0465,-0.0669,-0.0695,-0.0749,-0.0747,-0.0715,-0.0737,-0.0732,-0.0728,-0.0773,-0.0773,-0.0773,-0.0772,0,0.0108,0.012,0.0147,0.0203,0.0236,0.0268,0.0293,0.031,0.029,0.0258,0.0206,0.0079,-0.0064,-0.026,-0.0418,-0.0568,-0.071,-0.0742,-0.0745,-0.0744,-0.0711,-0.0732,-0.0729,-0.077,-0.077,-0.077,-0.0771,0,0.013,0.0154,0.0197,0.0244,0.0289,0.0327,0.0338,0.0351,0.0355,0.0307,0.029,0.0117,0.0009,-0.0207,-0.0355,-0.0495,-0.0532,-0.0564,-0.0577,-0.0581,-0.0502,-0.043,-0.0416,0,0,0,0,0,0.0154,0.0186,0.0235,0.0284,0.0328,0.0352,0.0388,0.0393,0.0387,0.0373,0.0336,0.0205,-0.0019,-0.0137,-0.0267,-0.0357,-0.0568,-0.0513,-0.0613,-0.0756,-0.0759,-0.0694,0,0,0,0,0,0,0.017,0.0219,0.0241,0.0309,0.0345,0.0392,0.0415,0.0413,0.0403,0.0377,0.0254,0.0194,-0.0039,0.0057,-0.0265,-0.0312,-0.0386,-0.0628,-0.063,-0.0754,-0.0757,-0.0759,-0.0694,0,0,0,0,0]}]]